User: anonymous   Login
Location: *
(53.9002°N, 27.5624°E)
Time: 11:01:46
(UTC+00:00)
Language:

NOSS 3-1 (A) - Orbit

View from above orbital plane
View from above orbital plane
View from above satellite
View from above satellite

Ground track
Ground track

The orbit data is extracted from the following two-line orbital elements,

1 26905U 01040A   20019.19073199 0.00000000  00000-0  00000-0 0    01
2 26905  63.4017 136.1315 0454003   0.8081 359.1919 13.40777444    06
Epoch (UTC): 19 January 2020 04:34:39
Eccentricity: 0.0454003
inclination: 63.4017°
perigee height: 766 km
apogee height: 1446 km
right ascension of ascending node: 136.1315°
argument of perigee: 0.8081°
revolutions per day: 13.40777444
mean anomaly at epoch: 359.1919°
orbit number at epoch: 0

The dashed part of the orbit path shows where the satellite is in the earth's shadow,  

DLR